TimeEDT,TemperatureF,Dew PointF,Humidity,Sea Level PressureIn,VisibilityMPH,Wind Direction,Wind SpeedMPH,Gust SpeedMPH,PrecipitationIn,Events,Conditions,WindDirDegrees,DateUTC
12:53 AM,63.0,54.0,72,29.90,10.0,NNE,8.1,-,N/A,,Overcast,20,2011-10-28 04:53:00
1:53 AM,62.1,50.0,65,29.91,10.0,NNE,4.6,-,N/A,,Overcast,20,2011-10-28 05:53:00
2:53 AM,61.0,51.1,70,29.92,10.0,NE,4.6,-,N/A,,Overcast,40,2011-10-28 06:53:00
3:53 AM,61.0,50.0,67,29.92,10.0,ENE,9.2,-,N/A,,Overcast,60,2011-10-28 07:53:00
4:53 AM,61.0,50.0,67,29.94,10.0,NE,9.2,-,N/A,,Overcast,40,2011-10-28 08:53:00
5:53 AM,59.0,50.0,72,29.96,10.0,NE,12.7,-,0.00,Rain,Light Rain,50,2011-10-28 09:53:00
6:53 AM,57.9,50.0,75,29.97,10.0,ENE,12.7,20.7,0.00,,Overcast,70,2011-10-28 10:53:00
7:53 AM,57.0,46.9,69,30.01,10.0,ENE,12.7,-,N/A,,Overcast,60,2011-10-28 11:53:00
8:53 AM,53.1,48.0,83,30.03,10.0,NE,11.5,-,0.00,Rain,Light Rain,50,2011-10-28 12:53:00
9:53 AM,53.1,46.9,80,30.05,10.0,NE,13.8,20.7,0.00,,Overcast,50,2011-10-28 13:53:00
10:53 AM,53.1,46.0,77,30.05,10.0,ENE,10.4,20.7,N/A,,Overcast,60,2011-10-28 14:53:00
11:53 AM,53.1,45.0,74,30.06,10.0,NE,12.7,19.6,0.00,,Overcast,50,2011-10-28 15:53:00
12:20 PM,53.6,44.6,72,30.07,10.0,NE,16.1,20.7,N/A,,Overcast,50,2011-10-28 16:20:00
12:53 PM,52.0,44.1,74,30.06,10.0,NE,10.4,19.6,N/A,,Overcast,40,2011-10-28 16:53:00
1:53 PM,53.1,45.0,74,30.03,10.0,ENE,12.7,21.9,N/A,,Overcast,70,2011-10-28 17:53:00
2:53 PM,51.1,45.0,80,30.01,10.0,NE,12.7,18.4,N/A,,Overcast,50,2011-10-28 18:53:00
3:18 PM,50.0,44.6,82,30.03,10.0,NNE,10.4,18.4,N/A,,Overcast,30,2011-10-28 19:18:00
3:53 PM,50.0,43.0,77,30.01,10.0,NE,12.7,23.0,N/A,,Overcast,50,2011-10-28 19:53:00
4:53 PM,48.9,42.1,77,30.01,10.0,NE,15.0,23.0,N/A,,Overcast,50,2011-10-28 20:53:00
5:53 PM,48.0,41.0,77,30.02,10.0,NE,15.0,-,0.00,Rain,Light Rain,40,2011-10-28 21:53:00
6:07 PM,46.4,41.0,81,30.02,9.0,NE,13.8,-,0.00,Rain,Light Rain,50,2011-10-28 22:07:00
6:53 PM,46.0,42.1,86,30.03,10.0,NE,11.5,-,0.01,,Overcast,50,2011-10-28 22:53:00
7:53 PM,45.0,42.1,90,30.03,6.0,NE,11.5,-,0.02,Rain,Light Rain,40,2011-10-28 23:53:00
9:13 PM,42.8,41.0,93,30.02,10.0,NE,13.8,19.6,0.00,,Overcast,50,2011-10-29 01:13:00
9:34 PM,42.8,41.0,93,30.02,4.0,NE,15.0,20.7,0.03,Rain,Rain,50,2011-10-29 01:34:00
9:53 PM,42.1,41.0,96,30.02,7.0,NE,15.0,20.7,0.05,Rain,Light Rain,50,2011-10-29 01:53:00
10:05 PM,42.8,39.2,87,30.02,6.0,NE,11.5,20.7,0.02,Rain,Light Rain,40,2011-10-29 02:05:00
10:53 PM,42.1,39.9,92,30.03,10.0,NE,10.4,-,0.03,,Overcast,40,2011-10-29 02:53:00
11:07 PM,42.8,41.0,93,30.03,10.0,NE,10.4,-,0.00,Rain,Light Rain,40,2011-10-29 03:07:00
11:53 PM,42.1,39.9,92,30.02,9.0,NE,13.8,-,0.05,Rain,Light Rain,50,2011-10-29 03:53:00